一网星座-0046星 (ONEWEB-0046 )

导读

ONEWEB-0046是一颗由英国发射的卫星,于2020年3月21日08:00发射升空,属于OneWeb低轨卫星互联网星座的组网卫星。该星座旨在为全球提供宽带互联网接入服务,这颗卫星的成功发射,是OneWeb星座部署进程中的重要一环,推进了全球卫星互联网网络的搭建进程。

Basic Information
目录编号:
45447
目录名称:
ONEWEB-0046
国际标识:
2020-020Z
轨道中心:
EARTH
卫星名称:
一网星座-0046星
卫星全名:
一网星座-0046星 (ONEWEB-0046 )
卫星状态:
在轨 (已飞行2276 天)
发射日期:
2020-03-21 UTC
国别 :
英国 (GB)
星等 :
--
Orbit Information
数据来源 国际轨道数据 AOE轨道数据
星历时间 2026-06-13T23:14:53+0800
20小时前
查看轨道信息
2026-06-11T01:00:00+0800
3天前
查看轨道信息
半长轴 7595.822km 7595.803km
偏心率 0.0002036 0.0001992
轨道倾角 87.889° 87.890°
近地点辐角 79.616° 80.210°
升交点赤经 21.777° 22.360°
平近点角 280.519° 149.097°
近地点 1216.138km 1216.152km
远地点 1219.232km 1219.18km
周期 109.805分钟 109.805分钟
每日圈数 13.114166 13.114214
Detailed Information
平衡模式:
三轴稳定
覆盖范围:
全球
运营商:
一网卫星公司
运营商所在国:
英国
制造商(研发单位):
一网卫星公司
制造商所在国:
英国
使用方式:
暂无
Satellite Introduction
OneWeb卫星网络由648颗重约125公斤的微型卫星组成,运行在1200公里的轨道上。 每颗卫星都能够提供至少每秒8千兆位的吞吐量,以使用其高吞吐量的Ku频段有效载荷为家庭和移动平台提供互联网接入。该卫星仍在工作。
2D Orbit Map
3D Orbit Map
Orbit Altitude Analysis Chart
Orbit Inclination Analysis Chart
Orbit Comprehensive Analysis Chart
View Comprehensive Chart